NOAA 17 DEB, 48725

Orbit data source: Space-Track

NOAA 17 DEB, 48725 is space debris in SSO originally from a launch on Mon, 24 Jun 2002 UTC launched from the Air Force Western Test Range (AFWTR). Debris objects in space refer to the collection of defunct objects orbiting the Earth. Examples of debris include non-operational satellites, rocket bodies, and fragments generated from explosions, collisions, or faulty payload assembly.

Loading next visibility...
Identifier
48725, 2002-032BJ
Orbit
SSO
Country
Flag of USUS
Related business
Manufacturer
Unknown
Mission
Spacecraft
Bus & Motor
Unknown
Mass
Unknown
Launch date (UTC)
2002-06-24 (24 years ago)
Launch vehicle
Unknown
Launch site
Air Force Western Test Range (AFWTR)
Object type
Payload
Rocket body
Debris
Shape & HBR
Unknown shape, 0.1 m
Radar Cross Section
Medium (>0.1 m² and <1 m²)

Expand to show TLE details & history
Last TLE update: 3 days ago

TLE from 3 days ago
0 NOAA 17 DEB
1 48725U 02032BJ  26170.60243154  .00009949  00000-0  24092-2 0  9994
2 48725  98.7032 122.7190 0049572 330.7070  29.1347 14.52458553273152
Epoch: 2026-06-19T14:27Z
TLE epoch observation values (Epoch: 2026-06-19T14:27:30.085Z)
Latitude
0.00003°
Longitude
-1.98541°
Altitude
689.9 km
Speed
7.528 km/s
True Right ascension
08h 10m 52s
True Declination
0° 00' 00"
Sunlit
Object was in daylight at epoch
Visualization orbit readout
Latitude
Unknown
Longitude
Unknown
Altitude
Unknown
Speed
Unknown
Apparent Right ascension
Unknown
Apparent Declination
Unknown
Sunlit
N/A
Visualization observer readout
Local Sidereal Time
21:37:57
Azimuth
Unknown
Elevation
Unknown
Doppler factor
Unknown
Orbital elements
Apogee altitude
749.906 km
Perigee altitude
679.584 km
Semi-major axis
7,092.882 km
Eccentricity
0.00496
Inclination
98.7032°
RAAN
122.719°
Arg. of periapsis
330.707°
True anomaly
29.41277°
Mean anomaly
29.1347°
Eccentric anomaly
29.27358°
Mean motion
3.63337 °/min
Orbital period
99.08 mins
BSTAR
0.0024092
Loading maneuver chart data...
Computing Atmospheric mass density...

Documentation

Showing up to 5 results
|